Regional Weather Roundup
Issued by NWS Midland/Odessa, TX

Skip options and go directly to product.
Home | Oldest Version | Previous Version | Current Version | All | Text Only | Save Text | Print | Product List | Glossary Off

Skip product version selection by date and time.   

487
ASUS44 KMAF 190910
RWRMAF
MIDLAND AREA WEATHER ROUNDUP
NATIONAL WEATHER SERVICE MIDLAND TX
400 AM CDT SUN APR 19 2015

...IN SOUTHWEST TEXAS AND SOUTHEAST NEW MEXICO...

CITY           SKY/WX    TMP DP  RH WIND       PRES   REMARKS
ALPINE         CLEAR     61  20  20 W10       30.00S
ANDREWS        FAIR      56  32  40 W7        29.84S
ARTESIA        CLEAR     52  32  46 W13       29.89S
BIG SPRING     CLEAR     56  27  32 W5        29.83R
CARLSBAD       CLEAR     51  33  50 W12       29.86S
DRYDEN           N/A     57  34  41 S7        29.82S
FORT STOCKTON  CLEAR     58  25  28 SW13      29.84F
GUAD PASS      CLEAR     55  22  27 W10       29.98S
HOBBS          CLEAR     54  32  43 NW14      29.86S
MARFA          CLEAR     41  27  56 W7        29.99S WCI  36
MIDLAND AIRPK  CLEAR     57  29  34 W7        29.83R
MIDLAND INTL   CLEAR     56  30  37 NW9       29.82R
ODESSA         CLEAR     55  29  36 NW9       29.84R
PECOS          CLEAR     55  27  34 W10       29.84R
PRESIDIO       FAIR      57  23  27 N13       29.91S
SEMINOLE       CLEAR     49  36  60 NW7       29.85R
SNYDER         CLEAR    N/A N/A N/A W6        29.77S
WINK           CLEAR     53  26  35 NW6       29.83R
$$
...OTHER STATIONS IN TEXAS...

CITY           SKY/WX    TMP DP  RH WIND       PRES   REMARKS
ABILENE        CLEAR     56  52  86 SE8       29.73F
AMARILLO       PTCLDY    46  36  68 NW10      29.85S
AUSTIN         CLOUDY    59  59 100 CALM      29.80F
BROWNSVILLE    FOG       67  66  97 CALM      29.78S VSB 1/2
CORPUS CHRISTI PTCLDY    68  67  96 NE5       29.80F FOG
DALLAS FTW     FAIR      57  55  93 S6        29.76R
DEL RIO        CLEAR     67  65  93 E8        29.78S FOG
EL PASO        CLEAR     66  16  14 W22G29    29.93F
HOUSTON INT    PTCLDY    61  58  90 SW5       29.79R
LUBBOCK        CLEAR     50  32  50 NW15      29.79R
SAN ANGELO     CLEAR     52  50  93 SW7       29.78F
SAN ANTONIO    CLOUDY    68  65  90 S8        29.81S
WACO           PTCLDY    59  57  93 S10       29.78F
WICHITA FALLS  NOT AVBL
$$
...OTHER LOCATIONS IN NEW MEXICO...

CITY           SKY/WX    TMP DP  RH WIND       PRES   REMARKS
ALAMAGORDO     CLEAR     50  28  43 NE7       29.94S
ALBUQUERQUE    PTCLDY    50  31  48 N9        30.00R
CANNON AFB     CLEAR     44  29  56 N10       29.88R WCI  38
CLOVIS         CLEAR     45  28  53 N12       29.88R WCI  39
HOLLOMAN AFB   CLEAR     44  26  49 W5        29.93R
ROSWELL        CLEAR     52  32  46 W12       29.87F
RUIDOSO        CLEAR     43  19  39 NW7       30.02R WCI  39
SANTA FE       PTCLDY    37  28  70 N10       29.97S WCI  30
TRUTH OR CONSE CLEAR     51  25  36 W8        29.97S
TUCUMCARI      PTCLDY    45  28  51 N10       29.89R WCI  40
$$

USA.gov is the U.S. government's official web portal to all federal, state and local government web resources and services.